Time,TemperatureF,DewpointF,PressureIn,WindDirection,WindDirectionDegrees,WindSpeedMPH,WindSpeedGustMPH,Humidity,HourlyPrecipIn,Conditions,Clouds,dailyrainin,SoftwareType,DateUTC
2013-03-15 00:09:00,28.1,25.0,29.96,South,176,0.0,13.0,88,0.00,,,0.00,weatherlink.com 1.10,2013-03-15 04:09:00,
2013-03-15 00:24:00,27.7,26.0,29.94,WSW,245,3.0,7.0,91,0.00,,,0.00,weatherlink.com 1.10,2013-03-15 04:24:00,
2013-03-15 00:39:00,27.6,26.0,29.93,SSW,210,0.0,10.0,92,0.00,,,0.00,weatherlink.com 1.10,2013-03-15 04:39:00,
2013-03-15 00:54:00,27.5,26.0,29.91,SSE,160,3.0,10.0,92,0.00,,,0.00,weatherlink.com 1.10,2013-03-15 04:54:00,
2013-03-15 01:09:00,27.4,26.0,29.90,WSW,250,2.0,10.0,93,0.00,,,0.00,weatherlink.com 1.10,2013-03-15 05:09:00,
2013-03-15 01:24:00,27.3,26.0,29.89,SW,235,6.0,10.0,93,0.00,,,0.00,weatherlink.com 1.10,2013-03-15 05:24:00,
2013-03-15 01:39:00,27.4,26.0,29.88,SSW,201,2.0,9.0,93,0.00,,,0.00,weatherlink.com 1.10,2013-03-15 05:39:00,
2013-03-15 01:54:00,27.5,26.0,29.88,South,172,6.0,8.0,93,0.00,,,0.00,weatherlink.com 1.10,2013-03-15 05:54:00,
2013-03-15 02:09:00,27.7,26.0,29.87,WNW,288,5.0,7.0,93,0.00,,,0.00,weatherlink.com 1.10,2013-03-15 06:09:00,
2013-03-15 02:24:00,28.6,27.0,29.86,SW,232,2.0,11.0,94,0.00,,,0.00,weatherlink.com 1.10,2013-03-15 06:24:00,
2013-03-15 02:39:00,29.1,27.0,29.85,SSW,200,7.0,11.0,93,0.00,,,0.00,weatherlink.com 1.10,2013-03-15 06:39:00,
2013-03-15 02:54:00,29.4,28.0,29.84,SW,232,6.0,12.0,93,0.00,,,0.00,weatherlink.com 1.10,2013-03-15 06:54:00,
2013-03-15 03:09:00,29.8,28.0,29.83,SW,231,8.0,16.0,93,0.00,,,0.00,weatherlink.com 1.10,2013-03-15 07:09:00,
2013-03-15 03:25:00,30.0,28.0,29.83,West,263,9.0,17.0,93,0.00,,,0.00,weatherlink.com 1.10,2013-03-15 07:25:00,
2013-03-15 03:39:00,30.2,29.0,29.82,West,264,6.0,15.0,93,0.00,,,0.00,weatherlink.com 1.10,2013-03-15 07:39:00,
2013-03-15 03:55:00,30.4,29.0,29.81,West,271,5.0,15.0,93,0.00,,,0.00,weatherlink.com 1.10,2013-03-15 07:55:00,
2013-03-15 04:10:00,30.4,29.0,29.80,SW,225,4.0,15.0,93,0.00,,,0.00,weatherlink.com 1.10,2013-03-15 08:10:00,
2013-03-15 04:25:00,30.5,29.0,29.80,WSW,238,10.0,15.0,92,0.00,,,0.00,weatherlink.com 1.10,2013-03-15 08:25:00,
2013-03-15 04:40:00,30.5,29.0,29.79,West,270,11.0,13.0,92,0.00,,,0.00,weatherlink.com 1.10,2013-03-15 08:40:00,
2013-03-15 04:55:00,30.6,28.0,29.80,West,264,2.0,12.0,91,0.00,,,0.00,weatherlink.com 1.10,2013-03-15 08:55:00,
2013-03-15 05:10:00,30.7,28.0,29.80,WSW,255,6.0,18.0,91,0.00,,,0.00,weatherlink.com 1.10,2013-03-15 09:10:00,
2013-03-15 05:25:00,30.6,29.0,29.79,WSW,244,5.0,11.0,92,0.00,,,0.00,weatherlink.com 1.10,2013-03-15 09:25:00,
2013-03-15 05:40:00,30.2,29.0,29.80,WSW,242,5.0,11.0,93,0.00,,,0.00,weatherlink.com 1.10,2013-03-15 09:40:00,
2013-03-15 05:55:00,29.9,27.0,29.80,West,273,7.0,20.0,90,0.00,,,0.00,weatherlink.com 1.10,2013-03-15 09:55:00,
2013-03-15 06:10:00,29.2,26.0,29.80,SW,226,5.0,15.0,86,0.00,,,0.00,weatherlink.com 1.10,2013-03-15 10:10:00,
2013-03-15 06:25:00,28.7,25.0,29.81,West,266,5.0,17.0,85,0.00,,,0.00,weatherlink.com 1.10,2013-03-15 10:25:00,
2013-03-15 06:40:00,28.3,24.0,29.82,WNW,290,7.0,19.0,84,0.00,,,0.00,weatherlink.com 1.10,2013-03-15 10:40:00,
2013-03-15 06:55:00,27.2,22.0,29.82,WNW,287,10.0,15.0,80,0.00,,,0.00,weatherlink.com 1.10,2013-03-15 10:55:00,
2013-03-15 07:10:00,26.5,21.0,29.83,WSW,252,9.0,18.0,81,0.00,,,0.00,weatherlink.com 1.10,2013-03-15 11:10:00,
2013-03-15 07:25:00,25.9,21.0,29.83,WNW,302,7.0,15.0,80,0.00,,,0.00,weatherlink.com 1.10,2013-03-15 11:25:00,
2013-03-15 07:40:00,25.4,20.0,29.84,West,281,7.0,17.0,79,0.00,,,0.00,weatherlink.com 1.10,2013-03-15 11:40:00,
2013-03-15 07:55:00,25.2,19.0,29.84,NW,316,10.0,17.0,78,0.00,,,0.00,weatherlink.com 1.10,2013-03-15 11:55:00,
2013-03-15 08:10:00,25.2,19.0,29.85,NW,309,11.0,18.0,78,0.00,,,0.00,weatherlink.com 1.10,2013-03-15 12:10:00,
2013-03-15 08:25:00,25.1,19.0,29.86,NNW,330,8.0,17.0,77,0.00,,,0.00,weatherlink.com 1.10,2013-03-15 12:25:00,
2013-03-15 08:40:00,25.0,18.0,29.86,WNW,283,17.0,17.0,76,0.00,,,0.00,weatherlink.com 1.10,2013-03-15 12:40:00,
2013-03-15 08:55:00,25.0,18.0,29.87,NNW,345,3.0,19.0,75,0.00,,,0.00,weatherlink.com 1.10,2013-03-15 12:55:00,
2013-03-15 09:10:00,25.1,19.0,29.87,SE,134,2.0,19.0,76,0.00,,,0.00,weatherlink.com 1.10,2013-03-15 13:10:00,
2013-03-15 09:25:00,25.4,19.0,29.87,NNW,330,1.0,11.0,76,0.00,,,0.00,weatherlink.com 1.10,2013-03-15 13:25:00,
2013-03-15 09:40:00,25.5,19.0,29.87,NE,47,2.0,14.0,76,0.00,,,0.00,weatherlink.com 1.10,2013-03-15 13:40:00,
2013-03-15 09:55:00,25.7,19.0,29.88,WNW,298,3.0,15.0,75,0.00,,,0.00,weatherlink.com 1.10,2013-03-15 13:55:00,
2013-03-15 10:10:00,26.1,19.0,29.88,WNW,284,7.0,10.0,74,0.00,,,0.00,weatherlink.com 1.10,2013-03-15 14:10:00,
2013-03-15 10:25:00,26.4,19.0,29.88,WSW,239,10.0,18.0,73,0.00,,,0.00,weatherlink.com 1.10,2013-03-15 14:25:00,
2013-03-15 10:40:00,26.7,19.0,29.87,West,281,9.0,12.0,72,0.00,,,0.00,weatherlink.com 1.10,2013-03-15 14:40:00,
2013-03-15 10:55:00,27.0,18.0,29.88,West,266,6.0,18.0,70,0.00,,,0.00,weatherlink.com 1.10,2013-03-15 14:55:00,
2013-03-15 11:25:00,27.9,19.0,29.88,NW,312,8.0,10.0,68,0.00,,,0.00,weatherlink.com 1.10,2013-03-15 15:25:00,
2013-03-15 11:40:00,28.3,18.0,29.88,West,263,11.0,18.0,66,0.00,,,0.00,weatherlink.com 1.10,2013-03-15 15:40:00,
2013-03-15 11:55:00,28.4,18.0,29.87,WNW,296,10.0,18.0,64,0.00,,,0.00,weatherlink.com 1.10,2013-03-15 15:55:00,
2013-03-15 12:10:00,28.0,18.0,29.87,West,281,5.0,14.0,66,0.00,,,0.00,weatherlink.com 1.10,2013-03-15 16:10:00,
2013-03-15 12:25:00,27.8,18.0,29.87,NW,319,4.0,15.0,66,0.00,,,0.00,weatherlink.com 1.10,2013-03-15 16:25:00,
2013-03-15 12:40:00,28.0,18.0,29.88,WNW,299,15.0,23.0,65,0.00,,,0.00,weatherlink.com 1.10,2013-03-15 16:40:00,
2013-03-15 12:55:00,29.0,18.0,29.87,West,277,7.0,16.0,64,0.00,,,0.00,weatherlink.com 1.10,2013-03-15 16:55:00,
2013-03-15 13:10:00,28.3,18.0,29.88,WSW,257,3.0,15.0,65,0.00,,,0.00,weatherlink.com 1.10,2013-03-15 17:10:00,
2013-03-15 13:26:00,28.1,17.0,29.88,WNW,283,10.0,21.0,63,0.00,,,0.00,weatherlink.com 1.10,2013-03-15 17:26:00,
2013-03-15 13:41:00,28.0,18.0,29.88,West,263,5.0,17.0,65,0.00,,,0.00,weatherlink.com 1.10,2013-03-15 17:41:00,
2013-03-15 13:56:00,28.2,18.0,29.88,West,263,4.0,15.0,65,0.00,,,0.00,weatherlink.com 1.10,2013-03-15 17:56:00,
2013-03-15 14:11:00,28.0,17.0,29.88,West,267,10.0,19.0,64,0.00,,,0.00,weatherlink.com 1.10,2013-03-15 18:11:00,
2013-03-15 14:26:00,27.2,17.0,29.88,West,262,2.0,16.0,66,0.00,,,0.00,weatherlink.com 1.10,2013-03-15 18:26:00,
2013-03-15 14:41:00,27.8,17.0,29.89,West,274,6.0,18.0,64,0.00,,,0.00,weatherlink.com 1.10,2013-03-15 18:41:00,
2013-03-15 14:56:00,28.2,17.0,29.88,WSW,257,11.0,17.0,63,0.00,,,0.00,weatherlink.com 1.10,2013-03-15 18:56:00,
2013-03-15 16:11:00,27.0,17.0,29.89,NNW,327,7.0,12.0,65,0.00,,,0.00,weatherlink.com 1.10,2013-03-15 20:11:00,
2013-03-15 17:41:00,24.5,13.0,29.91,WNW,302,3.0,12.0,61,0.00,,,0.00,weatherlink.com 1.10,2013-03-15 21:41:00,
2013-03-15 17:56:00,23.5,11.0,29.91,West,281,6.0,18.0,59,0.00,,,0.00,weatherlink.com 1.10,2013-03-15 21:56:00,
2013-03-15 18:11:00,23.1,12.0,29.92,West,267,7.0,15.0,63,0.00,,,0.00,weatherlink.com 1.10,2013-03-15 22:11:00,
2013-03-15 18:26:00,22.9,12.0,29.91,West,270,8.0,12.0,63,0.00,,,0.00,weatherlink.com 1.10,2013-03-15 22:26:00,
2013-03-15 18:41:00,22.5,12.0,29.92,West,276,4.0,13.0,65,0.00,,,0.00,weatherlink.com 1.10,2013-03-15 22:41:00,
2013-03-15 19:11:00,21.6,13.0,29.93,WSW,256,6.0,15.0,68,0.00,,,0.00,weatherlink.com 1.10,2013-03-15 23:11:00,
2013-03-15 19:26:00,20.9,12.0,29.93,West,276,6.0,10.0,68,0.00,,,0.00,weatherlink.com 1.10,2013-03-15 23:26:00,
2013-03-15 19:41:00,20.4,12.0,29.94,NW,312,2.0,5.0,70,0.00,,,0.00,weatherlink.com 1.10,2013-03-15 23:41:00,
2013-03-15 19:56:00,19.8,12.0,29.94,NNW,330,2.0,9.0,73,0.00,,,0.00,weatherlink.com 1.10,2013-03-15 23:56:00,
2013-03-15 20:11:00,19.3,12.0,29.95,SW,236,4.0,13.0,73,0.00,,,0.00,weatherlink.com 1.10,2013-03-16 00:11:00,
2013-03-15 20:27:00,19.3,11.0,29.96,NE,48,3.0,9.0,71,0.00,,,0.00,weatherlink.com 1.10,2013-03-16 00:27:00,
2013-03-15 20:42:00,19.1,11.0,29.95,WNW,290,2.0,13.0,71,0.00,,,0.00,weatherlink.com 1.10,2013-03-16 00:42:00,
2013-03-15 20:56:00,19.0,11.0,29.95,West,275,2.0,9.0,71,0.00,,,0.00,weatherlink.com 1.10,2013-03-16 00:56:00,
2013-03-15 21:12:00,19.0,11.0,29.95,West,274,4.0,7.0,72,0.00,,,0.00,weatherlink.com 1.10,2013-03-16 01:12:00,
2013-03-15 21:26:00,19.0,11.0,29.96,NW,311,4.0,12.0,72,0.00,,,0.00,weatherlink.com 1.10,2013-03-16 01:26:00,
2013-03-15 21:41:00,18.9,12.0,29.95,NNW,335,2.0,8.0,73,0.00,,,0.00,weatherlink.com 1.10,2013-03-16 01:41:00,
2013-03-15 21:57:00,18.9,12.0,29.96,WNW,302,2.0,9.0,73,0.00,,,0.00,weatherlink.com 1.10,2013-03-16 01:57:00,
2013-03-15 22:12:00,18.9,12.0,29.97,WNW,299,2.0,9.0,73,0.00,,,0.00,weatherlink.com 1.10,2013-03-16 02:12:00,
2013-03-15 22:27:00,18.9,12.0,29.96,WSW,253,1.0,6.0,73,0.00,,,0.00,weatherlink.com 1.10,2013-03-16 02:27:00,
2013-03-15 22:42:00,18.7,12.0,29.96,NW,319,4.0,6.0,75,0.00,,,0.00,weatherlink.com 1.10,2013-03-16 02:42:00,
2013-03-15 22:57:00,18.6,12.0,29.96,WNW,287,2.0,6.0,76,0.00,,,0.00,weatherlink.com 1.10,2013-03-16 02:57:00,
2013-03-15 23:12:00,18.5,12.0,29.96,NNW,346,3.0,6.0,76,0.00,,,0.00,weatherlink.com 1.10,2013-03-16 03:12:00,
2013-03-15 23:27:00,18.4,12.0,29.96,NW,305,0.0,4.0,76,0.00,,,0.00,weatherlink.com 1.10,2013-03-16 03:27:00,
2013-03-15 23:42:00,18.3,12.0,29.96,NNW,343,0.0,2.0,76,0.00,,,0.00,weatherlink.com 1.10,2013-03-16 03:42:00,
2013-03-15 23:57:00,18.1,12.0,29.96,NNE,22,2.0,2.0,76,0.00,,,0.00,weatherlink.com 1.10,2013-03-16 03:57:00,